Weather in Mtwara

Tanzania     10°17′05″S   40°11′10″E
temp.,
°C
wind,
m/s
gust,
m/s
humid.,
%
clouds,
%
prec.,
mm/h
press.,
hPa
HPBL,
m
3 march, wed
wed300:00+28n688750 0.1 1009590
03:00+27n578652 0.3 1009577
06:00+27nnw568698 0.4 1009573
09:00+28nnw678360 0.9 1011760
12:00+29nnw78744 0.3 1010981
15:00+29n67732 0.4 10071026
18:00+28n68760 0.0 1007914
21:00+28n687624 0.0 1009940
4 march, thu
thu400:00+28n6777100 0.0 1010774
03:00+27n687998 0.0 1008877
06:00+28n6878100 0.1 1008988
09:00+28n6878100 0.3 1011986
12:00+28n7978100 0.4 1009944
15:00+29nnw8107899 2.4 10071082
18:00+28nnw71081100 3.9 1007891
21:00+28n798277 6.1 1009858
5 march, fri
fri500:00+28n81082100 1.8 1009901
03:00+27n81082100 6.6 1008816
06:00+27n7985100 9.1 1009678
09:00+26nnw7988100 22.6 1011705
12:00+27nnw7985100 7.1 1010784
15:00+28nnw7983100 8.0 1007879
18:00+28nnw7982100 0.2 1007878
21:00+28n7981100 0.4 1010881
6 march, sat
sat600:00+28n81084100 1.7 1009837
03:00+28n81183100 17.7 1008915
06:00+28nnw81083100 8.0 1009914
09:00+28nw91180100 15.8 1011886
12:00+28nw101281100 1.3 1010968
15:00+27nnw91184100 1.4 1008739
18:00+27nw9117996 0.0 1008786
21:00+27nw587892 0.0 1010497
7 march, sun
sun700:00+27nw6877100 0.0 1009491
03:00+27nw7980100 0.0 1008641
06:00+26wnw71076100 0.1 1009548
09:00+25w6985100 0.6 1011421
12:00+27wsw5880100 0.3 1010598
15:00+29w3571100 0.3 1007940
18:00+28w478098 0.3 1008568
21:00+26sw117999 0.3 1009120